Time,TemperatureF,DewpointF,PressureIn,WindDirection,WindDirectionDegrees,WindSpeedMPH,WindSpeedGustMPH,Humidity,HourlyPrecipIn,Conditions,Clouds,dailyrainin,SoftwareType,DateUTC
2013-01-27 00:00:00,32.5,29.0,30.29,NE,49,1.0,2.0,88,0.00,,,0.01,weatherlink.com 1.10,2013-01-27 05:00:00,
2013-01-27 00:15:00,32.4,29.0,30.29,NE,49,2.0,3.0,88,0.00,,,0.01,weatherlink.com 1.10,2013-01-27 05:15:00,
2013-01-27 00:30:00,32.3,29.0,30.29,NE,49,0.0,3.0,88,0.00,,,0.01,weatherlink.com 1.10,2013-01-27 05:30:00,
2013-01-27 00:45:00,33.6,30.0,30.30,ENE,62,1.0,5.0,88,0.00,,,0.01,weatherlink.com 1.10,2013-01-27 05:45:00,
2013-01-27 01:01:00,33.7,30.0,30.30,ENE,67,1.0,2.0,87,0.00,,,0.01,weatherlink.com 1.10,2013-01-27 06:01:00,
2013-01-27 01:16:00,33.8,30.0,30.31,North,350,1.0,3.0,87,0.00,,,0.00,weatherlink.com 1.10,2013-01-27 06:16:00,
2013-01-27 01:31:00,33.9,31.0,30.31,ESE,122,0.0,3.0,87,0.00,,,0.00,weatherlink.com 1.10,2013-01-27 06:31:00,
2013-01-27 01:46:00,34.1,30.0,30.32,East,99,0.0,5.0,85,0.00,,,0.00,weatherlink.com 1.10,2013-01-27 06:46:00,
2013-01-27 02:01:00,34.4,29.0,30.33,East,96,3.0,5.0,82,0.00,,,0.00,weatherlink.com 1.10,2013-01-27 07:01:00,
2013-01-27 02:16:00,34.2,29.0,30.34,ENE,65,5.0,8.0,80,0.00,,,0.00,weatherlink.com 1.10,2013-01-27 07:16:00,
2013-01-27 02:31:00,33.9,28.0,30.34,ENE,78,5.0,6.0,78,0.00,,,0.00,weatherlink.com 1.10,2013-01-27 07:31:00,
2013-01-27 02:46:00,33.7,28.0,30.35,East,95,0.0,7.0,78,0.00,,,0.00,weatherlink.com 1.10,2013-01-27 07:46:00,
2013-01-27 03:01:00,33.4,27.0,30.35,East,87,2.0,6.0,78,0.00,,,0.00,weatherlink.com 1.10,2013-01-27 08:01:00,
2013-01-27 03:16:00,33.0,27.0,30.35,ESE,108,0.0,7.0,79,0.00,,,0.00,weatherlink.com 1.10,2013-01-27 08:16:00,
2013-01-27 03:31:00,32.7,27.0,30.35,ESE,102,2.0,7.0,79,0.00,,,0.00,weatherlink.com 1.10,2013-01-27 08:31:00,
2013-01-27 03:46:00,32.3,26.0,30.35,NE,45,2.0,3.0,79,0.00,,,0.00,weatherlink.com 1.10,2013-01-27 08:46:00,
2013-01-27 04:01:00,32.3,26.0,30.35,ESE,105,0.0,5.0,78,0.00,,,0.00,weatherlink.com 1.10,2013-01-27 09:01:00,
2013-01-27 04:16:00,32.1,26.0,30.35,NNE,16,1.0,4.0,77,0.00,,,0.00,weatherlink.com 1.10,2013-01-27 09:16:00,
2013-01-27 04:31:00,31.8,25.0,30.35,North,11,1.0,6.0,77,0.00,,,0.00,weatherlink.com 1.10,2013-01-27 09:31:00,
2013-01-27 04:46:00,31.6,25.0,30.35,North,349,1.0,3.0,77,0.00,,,0.00,weatherlink.com 1.10,2013-01-27 09:46:00,
2013-01-27 05:01:00,31.7,25.0,30.36,East,100,3.0,7.0,76,0.00,,,0.00,weatherlink.com 1.10,2013-01-27 10:01:00,
2013-01-27 05:16:00,32.0,25.0,30.38,East,80,0.0,6.0,75,0.00,,,0.00,weatherlink.com 1.10,2013-01-27 10:16:00,
2013-01-27 05:31:00,31.6,25.0,30.38,East,96,1.0,3.0,76,0.00,,,0.00,weatherlink.com 1.10,2013-01-27 10:31:00,
2013-01-27 05:46:00,30.9,25.0,30.39,ENE,76,2.0,4.0,77,0.00,,,0.00,weatherlink.com 1.10,2013-01-27 10:46:00,
2013-01-27 06:01:00,30.4,24.0,30.39,ESE,107,3.0,5.0,78,0.00,,,0.00,weatherlink.com 1.10,2013-01-27 11:01:00,
2013-01-27 06:16:00,30.1,24.0,30.39,East,80,1.0,5.0,78,0.00,,,0.00,weatherlink.com 1.10,2013-01-27 11:16:00,
2013-01-27 06:31:00,29.9,24.0,30.40,SE,134,0.0,4.0,78,0.00,,,0.00,weatherlink.com 1.10,2013-01-27 11:31:00,
2013-01-27 06:46:00,29.8,24.0,30.41,NE,36,0.0,4.0,79,0.00,,,0.00,weatherlink.com 1.10,2013-01-27 11:46:00,
2013-01-27 07:01:00,30.0,24.0,30.42,East,82,0.0,5.0,78,0.00,,,0.00,weatherlink.com 1.10,2013-01-27 12:01:00,
2013-01-27 07:17:00,29.9,24.0,30.42,NE,35,1.0,2.0,78,0.00,,,0.00,weatherlink.com 1.10,2013-01-27 12:17:00,
2013-01-27 07:32:00,29.8,24.0,30.43,NE,35,0.0,2.0,78,0.00,,,0.00,weatherlink.com 1.10,2013-01-27 12:32:00,
2013-01-27 07:47:00,29.8,24.0,30.44,NE,35,0.0,3.0,80,0.00,,,0.00,weatherlink.com 1.10,2013-01-27 12:47:00,
2013-01-27 08:02:00,29.9,24.0,30.44,NE,35,2.0,3.0,80,0.00,,,0.00,weatherlink.com 1.10,2013-01-27 13:02:00,
2013-01-27 08:17:00,30.3,24.0,30.45,NNE,27,2.0,4.0,78,0.00,,,0.00,weatherlink.com 1.10,2013-01-27 13:17:00,
2013-01-27 08:32:00,30.7,25.0,30.45,NNE,19,3.0,5.0,78,0.00,,,0.00,weatherlink.com 1.10,2013-01-27 13:32:00,
2013-01-27 08:47:00,31.4,25.0,30.45,NE,40,3.0,6.0,76,0.00,,,0.00,weatherlink.com 1.10,2013-01-27 13:47:00,
2013-01-27 09:02:00,32.2,25.0,30.46,NE,49,3.0,6.0,74,0.00,,,0.00,weatherlink.com 1.10,2013-01-27 14:02:00,
2013-01-27 09:17:00,33.5,25.0,30.46,North,11,3.0,4.0,71,0.00,,,0.00,weatherlink.com 1.10,2013-01-27 14:17:00,
2013-01-27 09:32:00,33.8,24.0,30.46,NNE,24,3.0,9.0,68,0.00,,,0.00,weatherlink.com 1.10,2013-01-27 14:32:00,
2013-01-27 09:47:00,35.0,24.0,30.47,NE,39,4.0,7.0,64,0.00,,,0.00,weatherlink.com 1.10,2013-01-27 14:47:00,
2013-01-27 10:02:00,35.9,24.0,30.47,NNE,13,2.0,6.0,62,0.00,,,0.00,weatherlink.com 1.10,2013-01-27 15:02:00,
2013-01-27 10:17:00,35.9,23.0,30.48,ENE,68,3.0,8.0,61,0.00,,,0.00,weatherlink.com 1.10,2013-01-27 15:17:00,
2013-01-27 10:32:00,35.9,25.0,30.48,NE,44,2.0,7.0,64,0.00,,,0.00,weatherlink.com 1.10,2013-01-27 15:32:00,
2013-01-27 10:47:00,36.8,24.0,30.48,East,94,1.0,7.0,61,0.00,,,0.00,weatherlink.com 1.10,2013-01-27 15:47:00,
2013-01-27 11:02:00,36.5,24.0,30.48,East,96,5.0,5.0,61,0.00,,,0.00,weatherlink.com 1.10,2013-01-27 16:02:00,
2013-01-27 11:17:00,36.7,24.0,30.48,NE,56,2.0,5.0,60,0.00,,,0.00,weatherlink.com 1.10,2013-01-27 16:17:00,
2013-01-27 11:32:00,37.4,24.0,30.48,ESE,122,2.0,4.0,60,0.00,,,0.00,weatherlink.com 1.10,2013-01-27 16:32:00,
2013-01-27 11:47:00,37.4,24.0,30.48,North,11,3.0,5.0,60,0.00,,,0.00,weatherlink.com 1.10,2013-01-27 16:47:00,
2013-01-27 12:02:00,37.3,25.0,30.47,South,175,4.0,4.0,61,0.00,,,0.00,weatherlink.com 1.10,2013-01-27 17:02:00,
2013-01-27 12:17:00,37.8,25.0,30.46,South,186,0.0,6.0,60,0.00,,,0.00,weatherlink.com 1.10,2013-01-27 17:17:00,
2013-01-27 12:32:00,38.6,26.0,30.45,WSW,247,4.0,8.0,60,0.00,,,0.00,weatherlink.com 1.10,2013-01-27 17:32:00,
2013-01-27 12:47:00,39.6,28.0,30.45,NNE,24,0.0,4.0,63,0.00,,,0.00,weatherlink.com 1.10,2013-01-27 17:47:00,
2013-01-27 13:02:00,40.4,27.0,30.44,SW,221,2.0,6.0,60,0.00,,,0.00,weatherlink.com 1.10,2013-01-27 18:02:00,
2013-01-27 13:17:00,40.5,27.0,30.42,SW,225,5.0,6.0,58,0.00,,,0.00,weatherlink.com 1.10,2013-01-27 18:17:00,
2013-01-27 13:32:00,41.3,27.0,30.43,West,259,5.0,6.0,57,0.00,,,0.00,weatherlink.com 1.10,2013-01-27 18:32:00,
2013-01-27 13:47:00,41.5,27.0,30.43,SE,132,1.0,6.0,57,0.00,,,0.00,weatherlink.com 1.10,2013-01-27 18:47:00,
2013-01-27 14:02:00,41.7,27.0,30.41,SSW,208,3.0,4.0,56,0.00,,,0.00,weatherlink.com 1.10,2013-01-27 19:02:00,
2013-01-27 14:17:00,42.7,27.0,30.41,South,169,0.0,5.0,55,0.00,,,0.00,weatherlink.com 1.10,2013-01-27 19:17:00,
2013-01-27 14:32:00,43.2,27.0,30.41,West,259,4.0,7.0,54,0.00,,,0.00,weatherlink.com 1.10,2013-01-27 19:32:00,
2013-01-27 14:47:00,42.7,28.0,30.40,WNW,290,2.0,9.0,56,0.00,,,0.00,weatherlink.com 1.10,2013-01-27 19:47:00,
2013-01-27 15:02:00,43.0,28.0,30.40,SSW,194,1.0,7.0,56,0.00,,,0.00,weatherlink.com 1.10,2013-01-27 20:02:00,
2013-01-27 15:17:00,43.4,28.0,30.39,SSW,194,5.0,7.0,56,0.00,,,0.00,weatherlink.com 1.10,2013-01-27 20:17:00,
2013-01-27 15:32:00,43.3,28.0,30.40,SW,223,1.0,5.0,56,0.00,,,0.00,weatherlink.com 1.10,2013-01-27 20:32:00,
2013-01-27 15:47:00,42.5,28.0,30.40,SSW,196,4.0,6.0,58,0.00,,,0.00,weatherlink.com 1.10,2013-01-27 20:47:00,
2013-01-27 16:02:00,42.9,29.0,30.41,SSE,167,3.0,7.0,58,0.00,,,0.00,weatherlink.com 1.10,2013-01-27 21:02:00,
2013-01-27 16:17:00,42.3,29.0,30.40,SSE,159,4.0,6.0,59,0.00,,,0.00,weatherlink.com 1.10,2013-01-27 21:17:00,
2013-01-27 16:32:00,41.9,28.0,30.41,SSW,211,3.0,7.0,59,0.00,,,0.00,weatherlink.com 1.10,2013-01-27 21:32:00,
2013-01-27 16:47:00,41.6,28.0,30.41,SSW,213,2.0,6.0,59,0.00,,,0.00,weatherlink.com 1.10,2013-01-27 21:47:00,
2013-01-27 17:02:00,41.6,28.0,30.41,SSW,194,3.0,4.0,60,0.00,,,0.00,weatherlink.com 1.10,2013-01-27 22:02:00,
2013-01-27 17:18:00,41.6,28.0,30.41,SSW,206,0.0,4.0,60,0.00,,,0.00,weatherlink.com 1.10,2013-01-27 22:18:00,
2013-01-27 17:33:00,41.4,28.0,30.42,South,182,0.0,3.0,60,0.00,,,0.00,weatherlink.com 1.10,2013-01-27 22:33:00,
2013-01-27 17:48:00,41.3,28.0,30.42,South,182,1.0,2.0,60,0.00,,,0.00,weatherlink.com 1.10,2013-01-27 22:48:00,
2013-01-27 18:03:00,41.2,29.0,30.42,South,182,0.0,2.0,61,0.00,,,0.00,weatherlink.com 1.10,2013-01-27 23:03:00,
2013-01-27 18:18:00,41.0,29.0,30.42,South,182,0.0,1.0,63,0.00,,,0.00,weatherlink.com 1.10,2013-01-27 23:18:00,
2013-01-27 18:33:00,40.6,30.0,30.43,South,182,1.0,2.0,66,0.00,,,0.00,weatherlink.com 1.10,2013-01-27 23:33:00,
2013-01-27 18:48:00,40.3,29.0,30.42,South,182,0.0,2.0,65,0.00,,,0.00,weatherlink.com 1.10,2013-01-27 23:48:00,
2013-01-27 19:03:00,40.2,30.0,30.43,South,182,0.0,2.0,66,0.00,,,0.00,weatherlink.com 1.10,2013-01-28 00:03:00,
2013-01-27 19:18:00,39.9,30.0,30.43,South,182,1.0,2.0,67,0.00,,,0.00,weatherlink.com 1.10,2013-01-28 00:18:00,
2013-01-27 19:33:00,39.8,30.0,30.43,South,182,0.0,0.0,67,0.00,,,0.00,weatherlink.com 1.10,2013-01-28 00:33:00,
2013-01-27 19:48:00,39.7,30.0,30.42,South,182,1.0,2.0,68,0.00,,,0.00,weatherlink.com 1.10,2013-01-28 00:48:00,
2013-01-27 20:03:00,39.6,31.0,30.43,South,182,0.0,1.0,70,0.00,,,0.00,weatherlink.com 1.10,2013-01-28 01:03:00,
2013-01-27 20:18:00,39.5,30.0,30.43,South,182,0.0,0.0,70,0.00,,,0.00,weatherlink.com 1.10,2013-01-28 01:18:00,
2013-01-27 20:33:00,39.4,31.0,30.42,South,182,0.0,2.0,71,0.00,,,0.00,weatherlink.com 1.10,2013-01-28 01:33:00,
2013-01-27 20:48:00,39.2,31.0,30.42,South,182,0.0,2.0,72,0.00,,,0.00,weatherlink.com 1.10,2013-01-28 01:48:00,
2013-01-27 21:03:00,39.2,30.0,30.43,South,182,0.0,1.0,70,0.00,,,0.00,weatherlink.com 1.10,2013-01-28 02:03:00,
2013-01-27 21:18:00,39.4,30.0,30.43,South,180,0.0,2.0,69,0.00,,,0.00,weatherlink.com 1.10,2013-01-28 02:18:00,
2013-01-27 21:33:00,39.6,30.0,30.42,East,81,0.0,2.0,68,0.00,,,0.00,weatherlink.com 1.10,2013-01-28 02:33:00,
2013-01-27 21:48:00,39.6,31.0,30.42,East,81,0.0,1.0,71,0.00,,,0.00,weatherlink.com 1.10,2013-01-28 02:48:00,
2013-01-27 22:03:00,39.1,31.0,30.41,East,81,0.0,1.0,73,0.00,,,0.00,weatherlink.com 1.10,2013-01-28 03:03:00,
2013-01-27 22:18:00,38.6,30.0,30.40,East,81,0.0,1.0,70,0.00,,,0.00,weatherlink.com 1.10,2013-01-28 03:18:00,
2013-01-27 22:33:00,38.0,30.0,30.41,East,81,1.0,2.0,74,0.00,,,0.00,weatherlink.com 1.10,2013-01-28 03:33:00,
2013-01-27 22:48:00,38.0,31.0,30.41,East,81,0.0,2.0,75,0.00,,,0.00,weatherlink.com 1.10,2013-01-28 03:48:00,
2013-01-27 23:03:00,38.1,31.0,30.40,East,81,0.0,2.0,75,0.00,,,0.00,weatherlink.com 1.10,2013-01-28 04:03:00,
2013-01-27 23:18:00,38.2,31.0,30.41,East,81,0.0,1.0,75,0.00,,,0.00,weatherlink.com 1.10,2013-01-28 04:18:00,
2013-01-27 23:33:00,38.3,32.0,30.40,East,81,0.0,0.0,77,0.00,,,0.00,weatherlink.com 1.10,2013-01-28 04:33:00,
2013-01-27 23:48:00,38.2,32.0,30.39,East,81,0.0,1.0,79,0.00,,,0.00,weatherlink.com 1.10,2013-01-28 04:48:00,